Other Public Products
Issued by NWS Grand Forks, ND

Home | Current Version | Previous Version | Text Only | Print | Product List | Glossary On
Versions: 1 2 3 4 5 6 7 8 9 10 11 12 13 14 15 16 17 18 19 20 21 22 23 24 25 26 27 28 29 30 31 32 33 34 35 36 37 38 39 40 41 42 43 44 45 46 47 48 49 50
285
FPUS83 KFGF 011931
OPUFGF
PRAIRIE TO PINES WEATHER ROUNDUP
NATIONAL WEATHER SERVICE EASTERN NORTH DAKOTA/GRAND FORKS ND
200 PM CDT SUN MAY 01 2016

 **SATELLITE DATA USED TO AUGMENT SKY COVER AT AUTOMATED STATIONS**
 *****  WEATHER ACROSS EASTERN NORTH DAKOTA  *****

CITY           SKY/WX    TMP DP  RH WIND       PRES   REMARKS
GRAND FORKS    SUNNY     63  30  28 NE9       30.22F
GRAND FORKS AF SUNNY     62  27  26 VRB2      30.23F
GRAND CITY NWS NOT AVBL
BUXTON           N/A     64  31  29 NW8         N/A
DEVILS LAKE    SUNNY     58  28  32 SW15      30.25F
FARGO          SUNNY     62  30  29 NW9       30.21F
WAHPETON ARPT  CLEAR     61  28  29 NE12      30.20F
$$

 *****  WEATHER ACROSS CENTRAL AND WESTERN NORTH DAKOTA  *****

CITY           SKY/WX    TMP DP  RH WIND       PRES   REMARKS
JAMESTOWN      SUNNY     60  29  30 NE14      30.23F
BISMARCK       SUNNY     62  29  28 VRB5      30.26F
MINOT          SUNNY     66  25  21 N6        30.25F
MINOT AFB      SUNNY     60  27  27 VRB1      30.24F
GARRISON         N/A     60  26  27 S9        30.26F
WILLISTON      SUNNY     64  28  25 NE10      30.27F
DICKINSON      SUNNY     58  28  32 VRB3      30.25F
HETTINGER      SUNNY     59  27  29 W8        30.28F
$$

 *****  OTHER OBSERVATIONS NORTHEAST NORTH DAKOTA  *****

CITY           SKY/WX    TMP DP  RH WIND       PRES   REMARKS
WALHALLA       FAIR      63  30  29 SW5       30.23F
LANGDON        FAIR      64  27  24 VRB6      30.23F
CAVALIER       FAIR      63  27  25 NW9       30.22F
GRAFTON        FAIR      63  28  27 E6        30.24F
CANDO          FAIR      63  23  22 N6        30.25F
FORT TOTTEN      N/A     60  26  27 W7        29.95S
ROLLA          FAIR      59  23  25 S3        30.24F
RUGBY          FAIR      61  27  27 NW5       30.23F
 ***** THE ABOVE OBSERVATIONS ARE NON NWS ARE NOT QUALITY
        CONTROLLED AND MAY MIS-REPORT RAIN FOR SNOW...
$$

 *****  OTHER OBSERVATIONS SOUTHEAST NORTH DAKOTA *****

CITY           SKY/WX    TMP DP  RH WIND       PRES   REMARKS
COOPERSTOWN    NOT AVBL
VALLEY CITY    FAIR      59  28  31 NE7       30.24F
OAKES            N/A    N/A N/A N/A MISG        N/A
GWINNER        FAIR      61  32  33 N15       30.22F
SHEYENNE NWR     N/A     60  30  32 NE7       29.95S
BUFFALO          N/A     60  26  27 NW8         N/A
WYNDMERE         N/A     61  32  33 NE14        N/A
 ***** THE ABOVE OBSERVATIONS ARE NON NWS ARE NOT QUALITY
       CONTROLLED AND MAY MIS-REPORT RAIN FOR SNOW...
$$

  *****  WEATHER ACROSS NORTHERN MINNESOTA  *****

CITY           SKY/WX    TMP DP  RH WIND       PRES   REMARKS
FLAG ISLAND    SUNNY     52  36  54 S5        30.22F
WARROAD        SUNNY     55  32  41 E8        30.24F
ROSEAU         SUNNY     61  30  31 E7        30.22F
HALLOCK        SUNNY     63  19  19 CALM      30.21F
THF RVR FALLS  SUNNY     61  28  29 NW12      30.22F
HALSTAD        NOT AVBL
FOSSTON        SUNNY     61  32  33 E5        30.21F
BAUDETTE       SUNNY     59  29  31 NW14      30.22F
WASKISH        SUNNY     61  32  33 N6        30.20F
CROOKSTON      SUNNY     61  28  29 CALM      30.21F
$$
  *****  WEATHER ACROSS CENTRAL AND WEST MINNESOTA  *****

CITY           SKY/WX    TMP DP  RH WIND       PRES   REMARKS
BEMIDJI        SUNNY     57  30  36 N5        30.19F
PARK RAPIDS    SUNNY     59  26  28 N12       30.18F
WADENA         SUNNY     57  32  38 N6G16     30.17F
DETROIT LAKES  SUNNY     59  30  33 E5        30.20F
MOORHEAD       SUNNY     63  30  29 N9G17     30.21F
FERGUS FALLS   SUNNY     59  32  36 NE5       30.17F
ELBOW LAKE     FAIR      56  32  39 NE10G20   30.19F
MORRIS MN      SUNNY     61  32  33 N16       30.17F
STAPLES        SUNNY     57  27  30 NE9G22    30.17F
WHEATON        SUNNY     63  34  34 N15G21    30.21F
$$
  *****  WEATHER ELSEWHERE ACROSS MINNESOTA  *****

CITY           SKY/WX    TMP DP  RH WIND       PRES   REMARKS
DULUTH         MOSUNNY   50  36  58 E10       30.20F
INTRNTL FALLS  SUNNY     55  29  36 N7        30.22F
ELY            SUNNY     55  28  35 N3        30.18F
CLOQUET        SUNNY     52  34  50 E13G18    30.19F
BRAINERD       SUNNY     58  29  33 NE9       30.18F
HIBBING        MOSUNNY   56  30  37 N7        30.18F
ALEXANDRIA     SUNNY     58  30  34 NE9G22    30.18F
SAINT CLOUD    MOSUNNY   58  33  39 NE8G21    30.15F
MINNEAPOLIS    PTSUNNY   59  36  42 N12G18    30.12F
$$

  *****  WEATHER ACROSS SOUTH DAKOTA  *****

CITY           SKY/WX    TMP DP  RH WIND       PRES   REMARKS
SIOUX FALLS    PTSUNNY   55  41  59 NE16G23   30.16F
BROOKINGS      SUNNY     54  32  43 NE13G20   30.17F
WATERTOWN      SUNNY     58  31  35 N16G25    30.19F
HURON          SUNNY     57  33  40 N12       30.21F
SISSETON         N/A     61  29  29 NE17G23   30.20F
ABERDEEN       SUNNY     59  32  36 N7G18     30.23F
MITCHELL       SUNNY     56  38  50 N12G23    30.21F
PIERRE         MOSUNNY   56  32  40 NE8       30.25F
MOBRIDGE       SUNNY     60  33  36 N8        30.23F
RAPID CITY     MOSUNNY   55  31  39 NE14G21   30.29F
$$

  *****  SOME WEATHER IN NEARBY STATES *****

CITY           SKY/WX    TMP DP  RH WIND       PRES   REMARKS
GLASGOW MT     SUNNY     64  31  28 VRB6      30.28F
GREAT FALLS MT SUNNY     57  30  35 SE6       30.28F
CHEYENNE WY    MOSUNNY   36  21  54 NE10      30.29F
SCOTTSBLUFF NE MOSUNNY   50  28  42 NW12G21   30.31F
OMAHA NE       LGT RAIN  46  44  93 N14       30.11R
DES MOINES IA  LGT RAIN  47  44  90 N8        30.05S
DAVENPORT IA   CLOUDY    49  45  86 NE12      30.00R
CHICAGO IL     CLOUDY    48  44  86 NE12      30.00R
EAU CLAIRE WI  MOSUNNY   61  32  33 NE8G17    30.08F
LA CROSSE WI   CLOUDY    55  37  50 NE9       30.07S
$$

  *****  SOME NATIONAL WEATHER *****

CITY           SKY/WX    TMP DP  RH WIND       PRES   REMARKS
LA GUARDIA NY  LGT RAIN  49  42  77 SE9       30.15F
RALEIGH NC     PTSUNNY   75  66  73 SW13      30.04F
ATLANTA GA     CLOUDY    82  63  52 S9        30.01F
NEW ORLEANS LA RAIN      72  68  87 NE7       29.99F FOG
OKLAHOMA CITY  MOSUNNY   62  43  49 N18G24    30.08F
ALBUQUERQUE NM PTSUNNY   49  29  46 E35G46    30.08F
SALT LAKE CITY PTSUNNY   61  23  23 NE18G25   30.05F
LOS ANGELES CA MOSUNNY   66  53  63 W10       29.93S
BOISE ID       MOSUNNY   64  38  38 N3        30.12F
SEATTLE WA     SUNNY     68  49  50 N14       30.12F
$$

*** WEATHER ACROSS MANITOBA...SASKATCHEWAN AND ONTARIO ***
                ***ONTARIO***

CITY           SKY/WX    TMP DP  RH WIND       PRES   REMARKS
GERALDTON      CLOUDY    46  32  57 E6        30.24F
THUNDER BAY    MOSUNNY   54  34  47 E15       30.22F
SIOUX LOOKOUT  MOSUNNY   55  28  35 VRB7      30.21F
TORONTO        DRIZZLE   48  45  87 NE10      29.98R
BIG TROUT LK   CLOUDY    54  14  20 S3        30.18F
PICKLE LAKE    MOSUNNY   57  27  30 S5        30.19F
DRYDEN         SUNNY     55  27  33 NE6       30.21F
KENORA         SUNNY     59  25  27 E6        30.22F
$$
                *** MANITOBA***

CITY           SKY/WX    TMP DP  RH WIND       PRES   REMARKS
BRANDON        MOSUNNY   64  25  22 SW8       30.23F
DAUPHIN        MOSUNNY   66  28  24 VRB6G18   30.19F
ISLAND LAKE    PTSUNNY   66  30  26 VRB2      30.14F
PILOT MOUND      N/A     61  27  27 NE1         N/A
THE PAS        PTSUNNY   50  36  57 N7        30.10F
THOMPSON       PTSUNNY   66  30  26 SW13G21   30.03F
WINNIPEG       MOSUNNY   64  32  29 VRB7      30.21F
LYNN LAKE      CLOUDY    55  43  62 NW12G17   30.03S
CHURCHILL      PTSUNNY   48  34  57 S10       30.01F
GILLAM         PTSUNNY   68  28  22 W10       30.04F
$$
                ***SASKATCHEWAN***

CITY           SKY/WX    TMP DP  RH WIND       PRES   REMARKS
ESTEVAN        PTSUNNY   66  28  24 NW5       30.24F
KINDERSLEY     PTSUNNY   66  32  28 SW13G22   30.20F
LLOYDMINSTER   PTSUNNY   68  30  24 W10G18    30.14F
PRINCE ALBERT  MOSUNNY   72  30  21 W18G25    30.08F
REGINA         PTSUNNY   68  32  26 NW8G25    30.19F
YORKTON        SUNNY     66  27  22 SW16G22   30.17F   C1F1C2F2C3F3C4F4C5F5C6F6C7F7C8F8C9F9CaFaCbFbCcFcCdFdCe!



USA.gov is the U.S. government's official web portal to all federal, state and local government web resources and services.